Notices

What's New in latest Release from April 7th, 2021:

- Updated Glossary, including Speed of Maximum Gust, and Total Hourly Precipitation

- Updated national and regional climate services offices contacts and prices information

- Addition of station inventory lists for 1981-2010, 1971-2000, and 1961-1990 Normals.

If you haven't already, please take our survey and provide feedback about our website: https://eccc.sondage-survey.ca/f/LanguageSelection.aspx?s=442ca660-fcf1-47c0-95a9-59707d6fd709

Hourly Data Report for December 25, 2004

TORONTO CITY
ONTARIO

43°40'00.000" N
79°24'00.000" W
112.50 m
6158355
71508
XTO

Download Data

Hourly Data (December 2004)
Hourly Data Report for December 25, 2004
TIME
LST
Temp Definition
°C
Dew Point Definition
°C
Rel Hum Definition
%
Precip. Amount Definition
mm

Wind Dir Definition
10's deg

Wind Spd Definition
km/h
Visibility Definition
km
Stn Press Definition
kPa
Hmdx Definition


Wind Chill Definition


Weather Definition


00:00 -12.3 -16.2 73   LegendMM LegendMM LegendMM 100.84     LegendNANA
01:00 -12.8 -16.2 76   LegendMM LegendMM LegendMM 100.86     LegendNANA
02:00 -12.6 -16.2 74   LegendMM LegendMM LegendMM 100.88     LegendNANA
03:00 -12.6 -16.3 74   LegendMM LegendMM LegendMM 100.96     LegendNANA
04:00 -12.7 -16.6 73   LegendMM LegendMM LegendMM 100.96     LegendNANA
05:00 -13.3 -16.6 76   LegendMM LegendMM LegendMM 100.97     LegendNANA
06:00 -13.4 -16.7 76   LegendMM LegendMM LegendMM 101.00     LegendNANA
07:00 -13.5 -17.0 75   LegendMM LegendMM LegendMM 101.05     LegendNANA
08:00 -13.5 -17.0 75   LegendMM LegendMM LegendMM 101.09     LegendNANA
09:00 -12.5 -16.3 73   LegendMM LegendMM LegendMM 101.17     LegendNANA
10:00 -12.0 -16.1 71   LegendMM LegendMM LegendMM 101.27     LegendNANA
11:00 -10.5 -16.0 64   LegendMM LegendMM LegendMM 101.32     LegendNANA
12:00 -8.9 -14.5 64   LegendMM LegendMM LegendMM 101.27     LegendNANA
13:00 -8.6 -16.0 55   LegendMM LegendMM LegendMM 101.19     LegendNANA
14:00 -8.6 -18.0 47   LegendMM LegendMM LegendMM 101.12     LegendNANA
15:00 -8.2 -14.1 62   LegendMM LegendMM LegendMM 101.11     LegendNANA
16:00 -7.9 -13.1 66   LegendMM LegendMM LegendMM 101.13     LegendNANA
17:00 -7.5 -11.7 72   LegendMM LegendMM LegendMM 101.16     LegendNANA
18:00 -7.2 -12.0 69   LegendMM LegendMM LegendMM 101.19     LegendNANA
19:00 -6.9 -10.2 77   LegendMM LegendMM LegendMM 101.21     LegendNANA
20:00 -6.6 -9.9 77   LegendMM LegendMM LegendMM 101.23     LegendNANA
21:00 -6.2 -10.3 73   LegendMM LegendMM LegendMM 101.21     LegendNANA
22:00 -5.8 -12.3 60   LegendMM LegendMM LegendMM 101.19     LegendNANA
23:00 -6.9 -10.0 79   LegendMM LegendMM LegendMM 101.15     LegendNANA

Notes on Data Quality.

Legend

  • E = Estimated
  • M = Missing
  • NA = Not Available*
  • [empty] = Indicates an unobserved value
Date modified: